Orbital Elements at Epoch 2459000.5 (2020-May-31.0) TDB
Reference: JPL 13 (heliocentric ecliptic J2000)
Element | Value | Uncertainty (1-sigma) | Units |
e | .09861871121600324 | 7.6569e-08 | |
a | 3.068027133371971 | 3.1488e-08 | au |
q | 2.765462251503098 | 2.3707e-07 | au |
i | 6.820658836787356 | 7.3961e-06 | deg |
node | 1.274357708876312 | 4.3342e-05 | deg |
peri | 3.398789483253167 | 5.0988e-05 | deg |
M | 51.68184587877474 | 2.5963e-05 | deg |
tp | 2458718.711842785029 (2019-Aug-23.21184279) | 0.00014241 | TDB |
period | 1962.850491743981 5.37 | 3.0218e-05 8.273e-08 | d yr |
n | .1834067350081983 | 2.8235e-09 | deg/d |
Q | 3.370592015240844 | 3.4593e-08 | au |
|
| | Orbit Determination Parameters
Additional Information
|